This is the latest recevied weather packets stored in our database for station/object KD7CIH. If no packets are shown the sender has not sent any weather packets the latest 10 day(s).
| Time | Temp. | Humidity | Pressure | Rain* | Wind** | Luminosity | Snow |
|---|---|---|---|---|---|---|---|
| 1788559053 | 26.67° C | 19% | 1011.6 hPa | 0 mm | - | - | - |
| 1788558753 | 26.67° C | 20% | 1011.6 hPa | 0 mm | - | - | - |
| 1788558454 | 26.67° C | 19% | 1011.4 hPa | 0 mm | - | - | - |
| 1788558156 | 26.67° C | 18% | 1011.6 hPa | 0 mm | - | - | - |
| 1788557854 | 26.67° C | 19% | 1011.4 hPa | 0 mm | - | - | - |
| 1788557554 | 26.67° C | 20% | 1011.4 hPa | 0 mm | - | - | - |
| 1788557253 | 26.67° C | 20% | 1011.6 hPa | 0 mm | - | - | - |
| 1788556956 | 26.67° C | 20% | 1011.4 hPa | 0 mm | - | - | - |
| 1788556780 | 26.67° C | 21% | 1011.6 hPa | 0 mm | - | - | - |
| 1788556481 | 26.67° C | 21% | 1011.7 hPa | 0 mm | - | - | - |
| 1788556053 | 26.67° C | 20% | 1011.7 hPa | 0 mm | - | - | - |
| 1788555753 | 26.67° C | 20% | 1011.7 hPa | 0 mm | - | - | - |
| 1788555453 | 26.67° C | 19% | 1011.7 hPa | 0 mm | - | - | - |
| 1788555153 | 26.67° C | 19% | 1011.7 hPa | 0 mm | - | - | - |
| 1788554980 | 26.67° C | 19% | 1011.7 hPa | 0 mm | - | - | - |
| 1788554554 | 26.67° C | 20% | 1011.6 hPa | 0 mm | - | - | - |
| 1788554382 | 26.67° C | 19% | 1011.7 hPa | 0 mm | - | - | - |
| 1788553953 | 26.67° C | 18% | 1011.6 hPa | 0 mm | - | - | - |
| 1788553653 | 26.11° C | 21% | 1011.6 hPa | 0 mm | - | - | - |
| 1788553483 | 26.11° C | 21% | 1011.6 hPa | 0 mm | - | - | - |
| 1788553063 | 26.11° C | 21% | 1011.7 hPa | 0 mm | - | - | - |
| 1788552753 | 26.11° C | 19% | 1011.7 hPa | 0 mm | - | - | - |
| 1788552453 | 26.11° C | 21% | 1011.8 hPa | 0 mm | - | - | - |
| 1788552155 | 26.11° C | 20% | 1011.8 hPa | 0 mm | - | - | - |
| 1788551854 | 26.11° C | 20% | 1011.7 hPa | 0 mm | - | - | - |
* Rain latest hour (hover to see other rain measurements)
** Current wind speed in m/s (hover to see current wind gust speed)